Weather History for New River MCAS, NC

Change the Weather History Date:

Saturday, February 16, 2013

  Actual Average Record
Temperature  
Mean Temperature 40 °F -  
Max Temperature 48 °F 56 °F 81 °F (2001)
Min Temperature 33 °F 36 °F 21 °F (2007)
Degree Days  
Heating Degree Days 24    
Moisture  
Dew Point 33 °F    
Average Humidity 82    
Maximum Humidity 89    
Minimum Humidity 61    
Precipitation  
Precipitation 0.21 in - - ()
Sea Level Pressure  
Sea Level Pressure 29.84 in    
Wind  
Wind Speed 7 mph (NNW)    
Max Wind Speed 20 mph    
Max Gust Speed 30 mph    
Visibility 6 miles    
Events Rain , Snow    
Averages and records for this station are not official NWS values.
T = Trace of Precipitation, MM = Missing Value Source: NWS Daily Summary

Daily Weather History Graph

Daily Weather History Graph

Search for Another Location

Airport:

Trip Planner

Search our weather history database for the weather conditions in past years. The results will help you decide how hot, cold, wet, or windy it might be!

Date:

Astronomy

Feb. 16, 2013 Rise Set
Actual Time 6:54 AM EST 5:54 PM EST
Civil Twilight 6:28 AM EST 6:19 PM EST
Nautical Twilight 5:58 AM EST 6:49 PM EST
Astronomical Twilight 5:29 AM EST 7:18 PM EST
Moon 10:23 AM EST (2/16) No Moon Set
Length of Visible Light 11h 51m
Length of Day
11h 00m
Waxing Crescent, 39% of the Moon is Illuminated
Feb 16
Waxing Crescent
Feb 17
First Quarter
Feb 25
Full
Mar 4
Last Quarter
Mar 11
New

Hourly Weather History & Observations

Time (EST) Temp. Windchill Dew Point Humidity Pressure Visibility Wind Dir Wind Speed Gust Speed Precip Events Conditions
12:56 AM 36.0 °F - 33.1 °F 89% 29.97 in 8.0 mi Calm Calm - N/A   Clear
1:56 AM 36.0 °F - 33.1 °F 89% 29.95 in 6.0 mi Calm Calm - N/A   Clear
2:56 AM 35.1 °F - 32.0 °F 89% 29.94 in 6.0 mi Calm Calm - N/A   Clear
3:56 AM 39.0 °F 36.8 °F 35.1 °F 86% 29.95 in 7.0 mi SW 3.5 mph - N/A   Clear
4:56 AM 37.9 °F 34.4 °F 34.0 °F 86% 29.93 in 5.0 mi WNW 4.6 mph - N/A   Clear
5:56 AM 39.0 °F 35.7 °F 34.0 °F 82% 29.91 in 7.0 mi NNW 4.6 mph - N/A   Clear
6:56 AM 39.0 °F 35.7 °F 34.0 °F 82% 29.91 in 8.0 mi North 4.6 mph - N/A   Clear
7:56 AM 39.9 °F 33.9 °F 35.1 °F 83% 29.91 in 9.0 mi NNE 9.2 mph - N/A   Clear
8:41 AM 41.0 °F 34.3 °F 35.6 °F 81% 29.90 in 8.0 mi NNE 11.5 mph - N/A   Mostly Cloudy
8:56 AM 41.0 °F 34.3 °F 36.0 °F 82% 29.90 in 8.0 mi NNE 11.5 mph - N/A   Overcast
9:56 AM 43.0 °F 37.7 °F 37.0 °F 80% 29.90 in 9.0 mi NNE 9.2 mph - N/A   Overcast
10:56 AM 44.1 °F 40.1 °F 37.0 °F 76% 29.88 in 10.0 mi NNE 6.9 mph - N/A   Overcast
11:56 AM 45.0 °F 40.6 °F 37.0 °F 74% 29.87 in 10.0 mi NE 8.1 mph - N/A   Overcast
12:07 PM 46.4 °F 42.9 °F 37.4 °F 71% 29.85 in 10.0 mi NE 6.9 mph - N/A   Overcast
12:35 PM 48.2 °F - 37.4 °F 66% 29.83 in 10.0 mi East 8.1 mph - N/A   Scattered Clouds
12:56 PM 48.0 °F - 37.0 °F 66% 29.82 in 10.0 mi ESE 5.8 mph - N/A   Clear
1:56 PM 48.0 °F - 37.0 °F 66% 29.77 in 10.0 mi ESE 5.8 mph - N/A   Overcast
2:56 PM 48.0 °F - 35.1 °F 61% 29.75 in 10.0 mi NW 15.0 mph - 0.00 in Rain Light Rain
3:03 PM 46.4 °F 40.1 °F 35.6 °F 66% 29.74 in 8.0 mi NNW 15.0 mph - 0.00 in Rain Light Rain
3:56 PM 42.1 °F 33.9 °F 36.0 °F 79% 29.75 in 3.0 mi North 17.3 mph - 0.02 in Rain Rain
4:05 PM 41.0 °F 32.5 °F 35.6 °F 81% 29.75 in 3.0 mi NNW 17.3 mph 23.0 mph 0.01 in Rain Light Rain
4:15 PM 39.2 °F 29.8 °F 35.6 °F 87% 29.76 in 5.0 mi NW 18.4 mph 26.5 mph 0.02 in Rain Light Rain
4:33 PM 37.4 °F 27.2 °F 33.8 °F 87% 29.77 in 2.5 mi NW 19.6 mph 29.9 mph 0.05 in Rain Rain
4:43 PM 37.4 °F 28.2 °F 33.8 °F 87% 29.78 in 4.0 mi NW 16.1 mph 23.0 mph 0.07 in Rain Light Rain
4:56 PM 37.0 °F 28.9 °F 33.1 °F 86% 29.80 in 4.0 mi NW 12.7 mph - 0.08 in Rain Light Rain
5:19 PM 35.6 °F 26.2 °F 30.2 °F 81% 29.80 in 3.0 mi NW 15.0 mph - 0.03 in Snow Light Snow
5:28 PM 33.8 °F 24.3 °F 30.2 °F 87% 29.80 in 2.0 mi NW 13.8 mph - 0.04 in Snow Light Snow
5:38 PM 33.8 °F 25.3 °F 30.2 °F 87% 29.80 in 1.5 mi NW 11.5 mph - 0.05 in Snow Light Snow
5:56 PM 33.1 °F 23.4 °F 30.0 °F 89% 29.81 in 1.8 mi NW 13.8 mph - 0.06 in Snow Light Snow
6:28 PM 33.8 °F 24.8 °F 30.2 °F 87% 29.81 in 2.0 mi NW 12.7 mph - 0.02 in Snow Light Snow
6:56 PM 33.1 °F 25.5 °F 30.0 °F 89% 29.83 in 2.5 mi NNW 9.2 mph - 0.03 in Snow Light Snow
7:34 PM 33.8 °F 24.3 °F 30.2 °F 87% 29.78 in 4.0 mi NNE 13.8 mph 17.3 mph 0.01 in Snow Light Snow
7:56 PM 34.0 °F 25.0 °F 30.0 °F 85% 29.82 in 10.0 mi NW 12.7 mph - 0.02 in   Overcast
8:56 PM 34.0 °F 25.0 °F 30.9 °F 89% 29.85 in 8.0 mi NW 12.7 mph 19.6 mph N/A   Overcast
9:33 PM 33.8 °F 26.4 °F 30.2 °F 87% 29.84 in 8.0 mi NW 9.2 mph - N/A   Overcast
9:56 PM 34.0 °F 26.0 °F 30.9 °F 89% 29.86 in 8.0 mi WNW 10.4 mph - N/A   Overcast
10:18 PM 35.6 °F 27.1 °F 30.2 °F 81% 29.86 in 8.0 mi WNW 12.7 mph - N/A   Overcast
10:56 PM 35.1 °F 27.9 °F 30.9 °F 85% 29.88 in 7.0 mi WNW 9.2 mph - 0.00 in   Overcast
11:25 PM 33.8 °F 25.8 °F 30.2 °F 87% 29.87 in 4.0 mi WNW 10.4 mph - 0.00 in Snow Light Snow
11:56 PM 34.0 °F 26.0 °F 30.9 °F 89% 29.89 in 4.0 mi WNW 10.4 mph - 0.00 in Snow Light Snow